Location: Unspecified
(0.0000°N, 0.0000°E)
Time: 17:35:38
(UTC+00:00)

Vanguard 3 - Pass Details

Date: 08 February 2023
Orbit: 509 x 3249 km, 33.3° (Epoch: 20 March)

Event Time Altitude Azimuth Distance (km) Brightness Sun altitude
Rises 12:55:25 0° 229° (SW) 2,797 10.2 71.9°
Reaches altitude 10° 12:57:48 10° 224° (SW) 1,775 9.4 71.6°
Maximum altitude 13:01:30 57° 145° (SE) 598 7.7 71.0°
Drops below altitude 10° 13:05:18 10° 65° (ENE) 1,818 8.9 70.4°
Sets 13:07:46 0° 61° (ENE) 2,874 9.8 70.0°
